Regional Weather Roundup
Issued by NWS San Diego, CA

Home | Current Version | Previous Version | Text Only | Print | Product List | Glossary On
Versions: 1 2 3 4 5 6 7 8 9 10 11 12 13 14 15 16 17 18 19 20 21 22 23 24 25 26
902
ASUS46 KSGX 221911
RWRSGX

SAN DIEGO HOURLY WEATHER ROUNDUP
NATIONAL WEATHER SERVICE SAN DIEGO CA
1200 PM PDT FRI MAY 22 2015

NOTE: "FAIR" INDICATES FEW OR NO CLOUDS BELOW 12,000 FEET WITH NO
SIGNIFICANT WEATHER AND/OR OBSTRUCTIONS TO VISIBILITY.

CAZ042-043-060-061-PZZ750-775-222000-

GREATER SAN DIEGO AREA

CITY           SKY/WX    TMP DP  RH WIND       PRES   REMARKS
LINDBERGH FLD  PTSUNNY   66  49  54 W13       30.07S
POINT LOMA       N/A     69  53  56 W9          N/A
NATIONAL CITY    N/A     68  55  62 SW9       30.07S
CHULA VISTA      N/A     66  56  68 W7        29.99S
IMPERIAL BEACH MOSUNNY   67  52  58 W10       30.07S
BROWN FIELD    MOSUNNY   65  48  54 W10G17    30.06R
MIRAMAR MCAS   PTSUNNY   68  48  48 NW14G22   30.05S
MONTGOMERY FLD PTSUNNY   65  49  56 W13       30.05S

$$

NORTH SAN DIEGO COUNTY

CITY           SKY/WX    TMP DP  RH WIND       PRES   REMARKS
CAMP PENDLETON PTSUNNY   66  49  54 W6        30.04S
OCEANSIDE AP   MOSUNNY   68  50  52 SW13      30.04S
OCEANSIDE HBR    N/A     64  55  73 W12       30.08R
VISTA            N/A     64  51  62 W7        30.03S
CARLSBAD       MOSUNNY   64  48  56 W10       30.05R
DEL MAR          N/A     67  57  69 W2        30.08S
LA JOLLA SCRIP   N/A    N/A N/A N/A W9        30.04S
FALLBROOK        N/A     66  53  63 SW5       30.04S
ESCONDIDO        N/A     67  55  64 W8        30.06R
SAN MARCOS       N/A     65  51  59 W1        30.03S

$$

EAST SAN DIEGO COUNTY

CITY           SKY/WX    TMP DP  RH WIND       PRES   REMARKS
RAMONA         CLOUDY    60  46  59 W15       30.04S
SANTEE LAKES     N/A     66  51  57 W10       30.05S
LA MESA          N/A     64  49  57 W3        30.00R
JAMUL            N/A     63  51  65 W3        30.05S
DESCANSO N       N/A     47  45  91 W5        29.97R
MT. LAGUNA OBS   N/A     36  36 100 SW13      29.60R WCI  28
CAMPO            N/A     53  43  68 W10G21    30.01S

$$

ORANGE COUNTY AND THE LOS ANGELES BASIN

CITY           SKY/WX    TMP DP  RH WIND       PRES   REMARKS
JOHN WAYNE AP  PTSUNNY   65  48  54 SW9       30.04R
LAKE FOREST FR   N/A     62  49  60 W3        29.94F
SANTA ANA        N/A     68  53  58 SW3       29.99S
HUNTINGTON BCH   N/A     67  56  69 W9        30.06R
LOS ALAMITOS   PTSUNNY   66  52  60 SW14      30.03F
FULLERTON      CLOUDY    66  49  54 VRB5      30.03R
LONG BEACH     CLOUDY    64  50  60 S7        30.04R
L.A. AP        PTSUNNY   62  50  64 SW13      30.04R
L.A. DOWNTOWN  PTSUNNY   67  49  52 MISG      30.02S

$$

THE INLAND EMPIRE

CITY           SKY/WX    TMP DP  RH WIND       PRES   REMARKS
CORONA         CLOUDY    62  49  62 W9        30.04S
CHINO          CLOUDY    65  48  54 W8        30.04S
ONTARIO        CLOUDY    62  44  51 W8        30.03S
SAN BERNARDINO CLOUDY    57  45  62 E6        30.05R
RIVERSIDE AP   CLOUDY    64  47  53 VRB6      30.03S
RIV CYN CREST    N/A     63  53  69 SW2         N/A
MORENO VALLEY    N/A     63  53  69 NE2       30.03R
MARCH ARB      CLOUDY    59  42  53 NW8       30.03R
HORSETHIEF CYN   N/A     59  43  55 W2        30.01R
PERRIS           N/A     58  49  71 SE5         N/A
MENIFEE          N/A     61  50  65 W6        30.11R
HEMET EAST       N/A     54  48  80 CALM      29.94S
FRENCH VALLEY  CLOUDY    57  48  72 SW7       30.04S
TEMECULA         N/A     59  54  82 SW5       30.01S

$$

SAN BERNARDINO AND RIVERSIDE COUNTY MOUNTAINS

CITY           SKY/WX    TMP DP  RH WIND       PRES   REMARKS
BIG BEAR AP    CLOUDY    37  32  81 SW8       30.04R WCI  31
ANGELUS OAKS     N/A     39  37  92 CALM      29.99R
PINE COVE        N/A     37  37 100 W3        30.07R

$$

SOUTHERN DESERT INCLUDING THE COACHELLA VALLEY

CITY           SKY/WX    TMP DP  RH WIND       PRES   REMARKS
PALM SPRINGS   MOSUNNY   76  40  27 NW14G23   29.91S
THOUSAND PALMS   N/A     74  43  33 W9        29.91R
PALM DESERT      N/A     78  43  28 NW3         N/A
THERMAL        SUNNY     78  39  24 N8        29.88S
BLYTHE         MOSUNNY   76  41  28 S7G17     29.88S
IMPERIAL AP    SUNNY     75  40  28 NW10G23   29.91F
EL CENTRO NAS  MOSUNNY   76  39  26 W13G22    29.94S
YUMA AZ        SUNNY     77  40  26 W17G31    29.93S
MEXICALI       SUNNY     75  37  25 W16       29.94

$$

UPPER DESERT

CITY           SKY/WX    TMP DP  RH WIND       PRES   REMARKS
VICTORVILLE AP CLOUDY    55  43  62 S14       29.98S
HESPERIA         N/A     52  42  69 W15       30.12R
APPLE VALLEY     N/A     54  42  65 SW16G22   30.05R
PALMDALE       PTSUNNY   62  42  47 W16G25    29.98S
LANCASTER      MOSUNNY   66  42  41 W23       29.97R
EDWARDS AFB    PTSUNNY   67  39  35 W10G23    29.92S
DAGGETT        PTSUNNY   67  39  35 W21G29    29.94S
29 PALMS N     MOSUNNY   70  39  32 N14G24    29.97F
NEEDLES        PTSUNNY   76  37  24 SW12G17   29.85F

$$

REGIONAL REPORTS

CITY           SKY/WX    TMP DP  RH WIND       PRES   REMARKS
SANTA BARBARA  MOSUNNY   68  52  56 W17       29.99S
SANDBERG       CLOUDY    48  44  86 NW14      30.04S
LAS VEGAS NV   RAIN      65  53  65 SE8G17    29.81F
PHOENIX AZ     MOSUNNY   80  36  20 S10G23    29.88S
TIJUANA        PTSUNNY   66  43  42 W12       30.07S
ENSENADA NW      N/A     66  32  28 SW2       30.06R

$$

OFFSHORE ISLANDS

CITY           SKY/WX    TMP DP  RH WIND       PRES   REMARKS
CATALINA ARPT  CLOUDY    56  49  77 W17       30.06R
SAN NICOLAS IS MOSUNNY  N/A N/A N/A W20       30.05F

$$

MARINE AND OFFSHORE BUOY REPORTS

STATION/POSITION SKY/WX   TEMP    WIND        PRES    SWELL
                          AIR SEA DIR/SP/G            HT/PER/DIR
                          (F)     (DEG/KT/KT) (MB)    (FT/S/D)
TANNER BANKS               60 62  300/ 12/ 14 1018.4R   3/290/12
S CLEMENTE BASIN           61 62  270/ 10/ 12 1018.0R   3/260/13
SAN NICOLAS IS.               59                N/A     3/270/13
SO. S. ROSA ISLA           59 60  280/ 12/ 14 1017.2R   3/12
W. S. BARBARA CH           57 58  300/ 10/ 12 1017.2R   3/310/11
M. S. BARBARA CH           58 58  260/ 16/ 19 1016.9R
S. MONICA BASIN            60 62  260/  8/ 10 1017.4R   3/250/12
S PEDRO CHANNEL               63                N/A     2/250/13
DANA POINT                    64                N/A     2/180/17
OCEANSIDE OFFSHR              64                N/A     2/200/17
TORREY PINES OTR              64                N/A     2/200/17
LA JOLLA 1                 62 65  280/  5/  8 1017.8R
MISSION BAY BUOY              64                N/A     2/230/13
SAN DIEGO BAY                 68              1018.2R
POINT LOMA SOUTH              64                N/A     2/230/13

$$




USA.gov is the U.S. government's official web portal to all federal, state and local government web resources and services.